FW2285 Weather Reports


Display with metric or nautical units.
time (UTC)temp
F
wind
direction
speed
MPH
gust
MPH
rain 1hr
in
rain 24hr
in
rain mn
in
humidity
%
barometer
mb
20260506223021 60 5 1.0 7.0 0.00 0.04 0.03 20 1018.6
20260506221520 60 311 2.0 5.0 0.00 0.04 0.03 24 1018.7
20260506220027 60 38 3.0 9.0 0.00 0.04 0.03 23 1018.8
20260506214519 60 313 4.0 7.0 0.00 0.04 0.03 22 1018.8
20260506213018 60 258 2.0 7.0 0.00 0.04 0.03 25 1019.0
20260506211525 60 340 2.0 6.0 0.00 0.04 0.03 26 1019.2
20260506210025 60 306 2.0 5.0 0.00 0.04 0.03 27 1019.3
20260506204516 60 301 1.0 5.0 0.00 0.04 0.03 24 1019.5
20260506203014 60 234 0.0 6.0 0.00 0.04 0.03 28 1019.7
20260506201513 60 344 1.0 6.0 0.00 0.04 0.03 28 1019.8
20260506200031 59 259 2.0 6.0 0.00 0.04 0.03 27 1019.9
20260506194511 59 65 1.0 8.0 0.00 0.04 0.03 24 1020.1
20260506193009 59 248 2.0 9.0 0.00 0.04 0.03 27 1020.2
20260506191508 58 14 1.0 6.0 0.00 0.04 0.03 24 1020.4
20260506190007 58 338 2.0 11.0 0.00 0.05 0.03 26 1020.3
20260506184506 57 64 2.0 8.0 0.00 0.05 0.03 27 1020.7
20260506183005 57 245 2.0 6.0 0.00 0.05 0.03 29 1020.9
20260506181504 56 81 2.0 7.0 0.00 0.05 0.03 26 1021.1
20260506180005 56 328 1.0 8.0 0.00 0.05 0.03 29 1021.1
20260506174501 56 350 3.0 8.0 0.00 0.05 0.03 24 1021.0
20260506173001 56 348 1.0 5.0 0.00 0.05 0.03 27 1021.0
20260506171610 57 302 2.0 9.0 0.00 0.05 0.03 26 1020.9
20260506170112 57 304 3.0 8.0 0.00 0.05 0.03 26 1021.1
20260506164623 55 303 3.0 8.0 0.00 0.05 0.03 29 1021.0
20260506164502 55 311 3.0 8.0 0.00 0.05 0.03 27 1021.1
20260506163105 56 355 2.0 9.0 0.00 0.05 0.03 28 1021.1
20260506161554 56 333 2.0 6.0 0.00 0.05 0.03 29 1020.8
20260506160105 54 322 2.0 5.0 0.00 0.08 0.03 33 1020.6
20260506154553 54 248 2.0 11.0 0.00 0.08 0.03 29 1020.5
20260506153048 54 48 2.0 9.0 0.00 0.08 0.03 31 1020.5
20260506151547 54 84 3.0 7.0 0.00 0.08 0.03 33 1020.5
20260506150045 54 306 2.0 5.0 0.00 0.16 0.03 34 1020.5
20260506144543 53 355 2.0 5.0 0.00 0.16 0.03 38 1020.4
20260506143038 52 360 1.0 3.0 0.00 0.16 0.03 43 1020.4
20260506141544 51 38 0.0 5.0 0.00 0.16 0.03 42 1020.1
20260506140033 50 319 2.0 5.0 0.00 0.25 0.03 44 1019.9
20260506134531 50 328 0.0 5.0 0.00 0.25 0.03 45 1020.0
20260506133031 50 248 0.0 3.0 0.00 0.25 0.03 46 1019.8
20260506131534 49 317 0.0 3.0 0.00 0.25 0.03 51 1019.5
20260506130025 48 281 0.0 2.0 0.00 0.32 0.03 54 1019.4
20260506124526 47 281 0.0 1.0 0.00 0.32 0.03 56 1018.9
20260506123029 45 281 0.0 1.0 0.00 0.32 0.03 59 1018.6
20260506121519 44 281 0.0 0.0 0.00 0.32 0.03 60 1018.5
20260506120024 44 281 0.0 0.0 0.00 0.32 0.03 60 1018.1
20260506114517 44 281 0.0 0.0 0.00 0.32 0.03 60 1017.9
20260506113016 45 281 0.0 0.0 0.00 0.32 0.03 60 1017.7
20260506111515 45 281 0.0 0.0 0.00 0.32 0.03 60 1018.1
20260506110016 45 281 0.0 0.0 0.00 0.32 0.03 60 1018.1
20260506104513 45 281 0.0 0.0 0.00 0.32 0.03 60 1018.1
20260506103024 45 281 0.0 2.0 0.00 0.32 0.03 60 1018.1
20260506101509 45 281 0.0 0.0 0.00 0.32 0.03 60 1017.5
20260506100007 45 281 0.0 0.0 0.00 0.32 0.03 60 1017.1
20260506094518 45 281 0.0 0.0 0.00 0.32 0.03 60 1017.3
20260506093006 45 281 0.0 0.0 0.00 0.32 0.03 61 1017.1
20260506091506 45 281 0.0 0.0 0.00 0.32 0.03 60 1017.0
20260506090005 45 281 0.0 0.0 0.00 0.32 0.03 60 1017.1
20260506084505 45 281 0.0 0.0 0.00 0.32 0.03 60 1017.1
20260506083004 45 281 0.0 0.0 0.00 0.32 0.03 60 1016.9
20260506081504 45 281 0.0 0.0 0.00 0.32 0.03 60 1016.6
20260506073002 45 281 0.0 0.0 0.01 0.37 0.03 61 1015.7
20260506071501 45 281 0.0 0.0 0.01 0.37 0.03 61 1015.6
20260506070117 45 281 0.0 0.0 0.01 0.37 0.03 61 1016.2
20260506061556 46 281 0.0 7.0 0.02 0.36 0.02 59 1016.9
20260506044552 50 31 1.0 11.0 0.00 0.33 0.33 47 1016.3
20260506043038 50 265 2.0 9.0 0.00 0.33 0.33 48 1016.2
20260506041547 51 298 1.0 5.0 0.00 0.33 0.33 47 1015.9
20260506040042 49 291 1.0 3.0 0.00 0.33 0.33 56 1016.1
20260506034532 49 55 0.0 0.0 0.00 0.33 0.33 55 1015.4
20260506033031 50 55 0.0 0.0 0.00 0.33 0.33 53 1014.9
20260506031534 50 55 0.0 1.0 0.00 0.33 0.33 52 1014.7
20260506030029 50 56 0.0 0.0 0.00 0.33 0.33 53 1014.5
20260506024533 50 57 0.0 2.0 0.00 0.33 0.33 54 1014.4
20260506023026 49 294 0.0 3.0 0.00 0.33 0.33 59 1014.3
20260506021524 49 346 0.0 0.0 0.00 0.33 0.33 60 1013.9
20260506020024 50 346 0.0 0.0 0.00 0.33 0.33 60 1013.6
20260506014523 50 346 0.0 0.0 0.00 0.33 0.33 60 1013.5
20260506013025 51 346 0.0 0.0 0.00 0.33 0.33 61 1013.3
20260506011525 51 346 0.0 0.0 0.00 0.33 0.33 61 1013.3
20260506010023 51 346 0.0 0.0 0.00 0.33 0.33 61 1013.1
20260506004521 51 346 0.0 0.0 0.00 0.33 0.33 60 1013.3
20260506003022 52 346 0.0 1.0 0.00 0.33 0.33 60 1013.2
20260506001520 52 346 0.0 2.0 0.00 0.33 0.33 59 1012.9
20260506000019 52 346 0.0 0.0 0.00 0.33 0.33 59 1012.6
20260505234539 53 346 0.0 0.0 0.00 0.33 0.33 56 1012.8
20260505233019 52 343 0.0 2.0 0.00 0.33 0.33 55 1013.0
20260505231518 52 343 0.0 1.0 0.00 0.33 0.33 56 1013.1
20260505230017 53 343 0.0 1.0 0.00 0.33 0.33 54 1012.7
20260505224526 53 343 0.0 2.0 0.00 0.33 0.33 54 1012.6